Weather History for Johnstown, PA

Change the Weather History Date:

Thursday, February 20, 2014

  Actual Average Record
Temperature  
Mean Temperature 36 °F 28 °F  
Max Temperature 45 °F 35 °F 70 °F (1948)
Min Temperature 27 °F 21 °F -9 °F (1978)
Degree Days  
Heating Degree Days 29 37  
Month to date heating degree days 872 774  
Since 1 July heating degree days 4991 4591  
Cooling Degree Days 0 0  
Month to date cooling degree days 0 0  
Year to date cooling degree days 0 0  
Moisture  
Dew Point 27 °F    
Average Humidity 68    
Maximum Humidity 85    
Minimum Humidity 51    
Precipitation  
Precipitation 0.07 in 0.09 in 1.22 in (1981)
Month to date precipitation 2.90 1.67  
Year to date precipitation 3.78 4.55  
Sea Level Pressure  
Sea Level Pressure 30.02 in    
Wind  
Wind Speed 11 mph (SSE)    
Max Wind Speed 22 mph    
Max Gust Speed 28 mph    
Visibility 9 miles    
Events Rain    
T = Trace of Precipitation, MM = Missing Value Source: NWS Daily Summary

Daily Weather History Graph

Daily Weather History Graph

Search for Another Location

Airport:

Trip Planner

Search our weather history database for the weather conditions in past years. The results will help you decide how hot, cold, wet, or windy it might be!

Date:

Astronomy

Feb. 20, 2014 Rise Set
Actual Time 7:01 AM EST 5:56 PM EST
Civil Twilight 6:34 AM EST 6:24 PM EST
Nautical Twilight 6:02 AM EST 6:56 PM EST
Astronomical Twilight 5:31 AM EST 7:27 PM EST
Moon 11:50 PM EST (2/20) 9:42 AM EST (2/20)
Length of Visible Light 11h 49m
Length of Day
10h 54m
Waning Gibbous, 71% of the Moon is Illuminated
Feb 20
Waning Gibbous
Feb 22
Last Quarter
Mar 1
New
Mar 8
First Quarter
Mar 16
Full

Hourly Weather History & Observations

Time (EST) Temp. Windchill Dew Point Humidity Pressure Visibility Wind Dir Wind Speed Gust Speed Precip Events Conditions
12:54 AM 30.0 °F 25.2 °F 26.1 °F 85% 30.12 in 10.0 mi South 4.6 mph - N/A   Clear
1:54 AM 30.0 °F 24.1 °F 26.1 °F 85% 30.13 in 10.0 mi South 5.8 mph - N/A   Clear
2:54 AM 28.9 °F 22.8 °F 25.0 °F 85% 30.13 in 8.0 mi South 5.8 mph - N/A   Clear
3:54 AM 28.0 °F 20.8 °F 25.0 °F 88% 30.16 in 8.0 mi SSW 6.9 mph - N/A   Clear
4:54 AM 28.0 °F 22.8 °F 25.0 °F 88% 30.15 in 7.0 mi SSW 4.6 mph - N/A   Clear
5:54 AM 28.0 °F 20.8 °F 24.1 °F 85% 30.16 in 10.0 mi SSE 6.9 mph - N/A   Clear
6:54 AM 28.9 °F 25.2 °F 21.9 °F 75% 30.16 in 10.0 mi SE 3.5 mph - N/A   Clear
7:54 AM 30.9 °F 22.8 °F 21.9 °F 69% 30.14 in 10.0 mi SE 9.2 mph - N/A   Clear
8:54 AM 36.0 °F 28.5 °F 21.9 °F 57% 30.13 in 10.0 mi SE 10.4 mph - N/A   Clear
9:54 AM 37.9 °F 29.2 °F 24.1 °F 57% 30.11 in 10.0 mi SSE 15.0 mph - N/A   Clear
10:54 AM 39.0 °F 30.3 °F 25.0 °F 57% 30.09 in 10.0 mi SSE 16.1 mph 21.9 mph N/A   Clear
11:54 AM 41.0 °F 32.8 °F 24.1 °F 51% 30.04 in 10.0 mi South 16.1 mph 26.5 mph N/A   Clear
12:54 PM 41.0 °F 32.8 °F 24.1 °F 51% 30.03 in 10.0 mi South 16.1 mph 25.3 mph 0.00 in Rain Light Rain
1:45 PM 37.0 °F 27.0 °F 30.0 °F 76% 29.93 in 2.5 mi SSE 18.4 mph 27.6 mph 0.07 in Rain Light Rain
1:54 PM 37.9 °F 28.2 °F 30.0 °F 73% 29.98 in 10.0 mi SSE 18.4 mph - 0.07 in Rain Light Rain
2:54 PM 42.1 °F 33.9 °F 27.0 °F 55% 29.96 in 10.0 mi South 17.3 mph - 0.00 in   Overcast
3:54 PM 43.0 °F 35.7 °F 26.1 °F 51% 29.94 in 10.0 mi SSE 15.0 mph - N/A   Overcast
4:54 PM 43.0 °F 36.0 °F 26.1 °F 51% 29.95 in 10.0 mi South 13.8 mph - N/A   Partly Cloudy
5:54 PM 42.1 °F 38.4 °F 26.1 °F 53% 29.96 in 10.0 mi SE 5.8 mph - N/A   Clear
6:54 PM 42.1 °F 35.2 °F 26.1 °F 53% 29.94 in 10.0 mi SSE 12.7 mph - N/A   Partly Cloudy
7:54 PM 43.0 °F 37.2 °F 28.0 °F 56% 29.91 in 10.0 mi SSE 10.4 mph - N/A   Overcast
8:54 PM 42.1 °F 34.2 °F 30.0 °F 62% 29.88 in 10.0 mi SSE 16.1 mph 21.9 mph N/A   Overcast
9:54 PM 43.0 °F 36.8 °F 33.1 °F 68% 29.87 in 10.0 mi South 11.5 mph - N/A   Mostly Cloudy
10:54 PM 44.1 °F 37.7 °F 36.0 °F 73% 29.84 in 10.0 mi South 12.7 mph 21.9 mph N/A   Scattered Clouds
11:54 PM 45.0 °F 38.9 °F 37.0 °F 74% 29.81 in 10.0 mi South 12.7 mph - N/A   Clear